Temp
9 10 10 13 15 17 18 19 19 20 20 19 20 20 20 20 21 20 20 21 21 21 20 19 20 19 19 19 19 19 19 19 18 19 19 18 18 18 18 18 18 17 17
9 9 9 12 14 15 16 17 18 19 20 20 20 20 20 20 20 20 21 21 21 21 19 19 19 19 19 19 19 19 19 19 19 19 19 18 18 18 18 18 18 17 17
8 7 8 11 12 14 14 16 17 18 18 19 20 20 20 20 20 20 20 20 20 20 20 19 19 19 19 19 20 20 19 19 19 19 19 19 18 18 18 18 18 17 17
7 7 8 9 10 12 13 14 15 16 17 18 18 19 19 20 20 20 20 20 20 20 20 19 19 19 19 19 19 19 19 19 19 19 19 19 18 18 18 18 18 17 17
6 6 6 8 9 10 11 12 13 14 15 16 17 18 18 18 19 19 20 20 20 20 20 19 19 19 19 19 19 19 19 19 19 18 18 18 18 18 18 18 17 17 17
5 6 5 7 7 8 9 10 11 12 13 14 15 17 17 18 18 18 18 19 19 19 19 19 19 19 19 19 19 19 19 19 18 18 18 18 19 19 18 17 17 17 16
4 4 4 5 6 7 8 8 9 11 11 12 13 14 16 17 17 18 18 18 19 19 19 19 19 19 18 19 18 19 19 19 18 18 18 18 19 19 18 17 17 16 16
3 4 5 5 5 5 6 7 7 9 9 10 10 11 14 16 17 17 18 18 18 18 18 18 18 18 18 18 18 18 19 19 18 18 18 18 18 18 17 17 16 16 16
3 3 4 4 5 6 4 5 6 7 7 8 8 9 14 15 16 16 17 17 18 18 18 18 18 18 18 18 18 18 19 19 19 19 18 18 18 18 17 17 16 16 16
2 2 2 3 4 5 5 4 4 5 5 7 8 8 11 13 14 15 15 16 17 17 17 18 18 18 18 18 18 19 19 19 19 19 18 19 19 18 17 16 16 16 16
1 1 1 1 2 3 3 5 6 5 5 7 8 8 9 10 11 12 13 14 15 16 17 17 18 18 18 18 18 19 19 19 19 18 19 19 19 18 18 16 16 16 16
0 1 1 0 1 2 2 3 4 4 4 5 5 6 6 7 9 10 12 13 14 15 16 17 17 17 17 17 18 18 18 19 19 19 19 19 19 18 18 16 16 16 16
-0 0 0 0 1 1 0 1 2 2 2 3 4 4 4 5 6 8 9 11 12 13 14 15 16 17 17 17 18 18 18 18 19 19 19 19 18 18 18 17 16 16 16
-0 -1 -0 -0 -0 -0 0 -0 -0 0 1 1 2 2 2 2 4 4 5 7 9 10 12 14 15 16 17 17 18 18 18 18 19 19 19 18 18 19 18 17 16 16 16
-1 -1 -1 -1 -1 -1 -1 -1 -1 -0 -1 -0 1 1 1 1 2 2 3 5 6 7 8 11 13 15 16 17 17 17 17 18 18 19 18 18 18 19 18 17 16 16 16
-1 -2 -1 -1 -1 -1 -1 -1 -2 -1 -1 -1 -1 -0 0 0 0 0 2 3 4 6 7 8 10 13 15 16 17 17 17 18 18 18 18 18 18 19 19 17 16 16 16
-2 -2 -2 -2 -2 -2 -2 -2 -2 -2 -2 -2 -2 -1 -1 -0 -1 -1 0 1 2 4 6 6 10 11 15 16 16 16 17 17 17 18 18 18 18 19 19 18 16 16 16
-2 -2 -3 -3 -3 -3 -3 -3 -3 -3 -3 -3 -2 -2 -2 -2 -1 -2 -1 -0 1 1 3 5 6 8 11 15 16 15 15 17 17 18 18 18 18 18 19 18 16 16 16
-3 -3 -3 -3 -3 -4 -4 -4 -4 -4 -4 -4 -3 -3 -3 -3 -3 -2 -2 -1 -1 0 1 3 4 5 6 13 15 15 15 15 16 18 17 18 18 18 19 18 17 16 16
-3 -3 -3 -3 -3 -3 -4 -4 -4 -5 -5 -5 -4 -4 -4 -4 -3 -3 -3 -2 -2 -1 0 1 3 4 5 11 14 15 14 15 16 17 18 18 18 18 19 19 18 16 15
-3 -3 -3 -3 -3 -3 -4 -4 -4 -5 -5 -5 -5 -5 -5 -4 -4 -4 -3 -3 -3 -2 -1 -0 1 3 6 9 13 14 14 14 15 16 17 18 17 17 18 18 18 17 15
-3 -3 -3 -3 -3 -3 -3 -4 -4 -4 -5 -5 -5 -5 -5 -5 -5 -4 -4 -4 -3 -3 -2 -1 0 1 3 5 8 15 14 14 13 14 15 16 17 18 17 18 17 17 16
-3 -3 -3 -3 -3 -3 -3 -4 -4 -4 -5 -5 -6 -6 -6 -6 -5 -5 -5 -5 -4 -4 -3 -2 -1 -0 1 2 4 6 14 15 14 13 14 14 16 17 17 18 17 17 17
-3 -3 -3 -3 -3 -3 -3 -4 -4 -5 -5 -5 -6 -6 -6 -6 -6 -6 -5 -5 -5 -5 -4 -3 -2 -1 -0 1 2 6 6 12 15 14 13 13 14 15 17 17 17 17 16
-3 -3 -3 -3 -3 -3 -3 -4 -4 -5 -5 -5 -5 -6 -6 -6 -6 -6 -6 -6 -5 -5 -4 -4 -4 -3 -1 0 1 3 4 6 13 14 15 13 13 13 17 17 17 16 15
-3 -3 -3 -4 -4 -4 -4 -4 -4 -4 -4 -5 -5 -6 -6 -7 -6 -7 -6 -6 -6 -6 -5 -5 -4 -3 -2 -1 -0 1 3 6 9 12 14 14 14 13 14 16 16 15 14
Height
843 837 833 828 820 816 812 812 813 812 811 811 808 809 808 808 808 808 808 808 808 810 809 812 811 813 814 814 815 816 817 818 819 818 819 820 820 821 823 823 824 824 824
854 845 840 832 825 819 815 814 813 812 813 813 810 810 809 808 809 809 809 809 808 809 809 811 812 812 814 814 815 816 817 818 819 819 820 821 821 822 823 824 826 826 826
856 847 841 835 828 823 819 816 816 813 813 812 813 811 810 810 809 809 810 810 810 811 810 812 813 812 814 815 815 816 817 819 820 820 820 821 822 823 823 825 826 827 828
856 848 842 838 832 827 823 820 817 814 813 812 811 812 812 810 808 808 809 811 811 811 812 813 812 812 814 815 815 816 817 819 820 821 821 821 822 823 824 825 827 828 829
857 851 845 840 834 830 825 821 820 817 814 813 811 811 812 811 810 808 808 810 810 811 812 812 812 812 813 814 814 816 817 818 820 821 821 822 823 823 825 826 827 829 829
857 850 847 844 837 832 829 826 822 819 816 814 811 810 811 810 811 810 809 809 810 810 811 811 811 812 812 813 813 814 816 818 820 821 822 822 824 823 825 827 828 828 830
860 855 849 844 838 835 831 828 825 822 819 816 813 810 810 809 810 810 809 810 810 810 810 810 811 811 811 811 813 813 814 816 819 820 822 823 824 825 825 827 828 829 830
861 855 848 841 837 834 832 830 826 825 822 817 814 810 808 807 808 808 808 808 808 809 808 808 809 809 810 811 811 811 812 814 816 818 820 822 823 824 825 826 828 829 831
861 855 850 847 843 838 836 833 829 826 824 820 814 810 808 807 806 805 805 805 806 806 807 807 807 807 807 808 809 810 811 812 814 816 817 818 821 823 824 825 827 829 830
866 860 855 851 845 841 838 835 832 827 823 819 816 813 809 807 804 804 803 802 803 802 804 805 805 805 805 806 806 807 809 810 812 814 815 815 819 821 823 824 825 828 829
866 864 861 856 851 848 843 837 832 828 825 820 816 812 809 807 806 804 802 800 798 799 800 801 802 804 804 804 804 805 807 808 810 812 813 814 817 819 820 823 824 827 828
866 864 861 857 854 848 843 838 834 831 827 824 821 817 812 809 807 804 801 798 796 795 795 795 797 800 802 801 801 803 805 806 807 810 811 812 814 816 818 821 822 825 827
876 870 865 861 856 850 846 843 838 835 831 827 823 819 815 810 807 803 799 796 794 793 792 791 792 795 796 797 798 800 801 803 805 806 808 810 812 814 816 818 820 822 824
877 874 869 865 861 855 850 847 844 840 836 831 827 823 819 813 808 805 802 799 795 792 790 789 789 790 791 793 794 796 797 799 802 802 805 807 809 810 812 815 818 820 823
878 875 870 866 863 859 854 849 845 842 839 835 830 825 821 816 812 807 803 798 795 791 789 786 784 784 786 787 789 791 792 795 797 799 801 803 805 807 808 811 814 817 821
880 877 873 866 864 861 856 852 847 845 840 836 832 827 822 818 813 809 802 797 793 790 786 784 781 779 778 779 781 785 788 790 793 794 797 799 801 803 805 805 809 813 818
882 879 874 869 864 861 856 853 849 845 841 836 833 829 824 818 813 809 804 799 794 788 784 781 777 774 771 768 773 777 782 785 788 789 792 795 797 800 801 803 805 809 813
883 877 874 869 866 861 855 852 850 845 841 836 832 828 825 819 813 809 805 800 795 790 785 780 776 771 768 763 762 770 775 779 782 783 785 790 793 795 797 799 800 803 809
882 881 874 871 866 861 856 853 849 844 839 835 831 828 824 819 813 808 805 801 796 790 784 779 773 773 767 759 764 763 768 773 773 776 779 782 787 790 792 795 798 800 804
883 879 877 872 867 862 857 852 849 843 838 834 830 828 823 818 813 808 804 800 796 791 784 779 774 768 766 755 754 759 761 763 769 770 773 776 781 785 787 791 794 797 800
880 876 872 868 865 861 856 852 846 841 836 832 828 826 820 816 811 807 803 800 796 792 787 782 776 769 758 756 754 748 750 757 761 765 767 770 774 778 782 786 789 792 797
878 875 871 867 863 859 856 852 848 842 836 832 827 823 819 814 810 805 802 799 795 790 786 781 777 771 764 761 757 747 746 749 752 758 762 764 768 772 776 780 784 786 791
876 873 869 865 861 857 853 848 844 839 834 828 824 819 815 811 808 804 800 797 795 790 785 782 777 774 767 757 760 757 738 736 740 749 754 760 761 765 769 773 778 781 784
874 871 867 863 859 854 850 845 841 836 831 826 821 817 813 810 805 802 798 794 792 789 783 781 777 773 769 761 754 748 740 735 731 743 748 749 756 757 762 766 769 774 778
872 867 864 860 856 851 846 842 838 833 829 823 818 813 810 806 803 799 795 791 789 786 781 778 775 772 769 765 758 754 742 736 728 725 731 741 750 753 755 759 762 766 771
868 864 861 856 851 847 842 838 833 828 823 818 814 809 805 802 798 795 791 788 785 782 778 774 772 769 765 761 758 751 751 746 735 729 727 730 734 745 750 752 754 758 764
Wind_Speed
39 39 39 39 38 31 17 11 7 5 3 1 3 3 4 6 8 10 12 12 12 11 12 10 11 11 11 12 10 9 10 9 10 11 12 12 14 14 15 14 15 16 17
29 32 34 37 36 36 30 23 11 7 6 4 2 3 5 6 7 8 9 9 8 8 10 11 11 11 11 11 11 10 9 10 11 11 13 13 14 15 15 16 17 16 16
28 31 36 35 35 34 34 31 21 15 8 7 6 4 4 6 7 7 7 6 7 7 8 9 9 10 10 11 11 10 10 10 10 11 11 13 15 15 16 16 16 15 14
27 31 34 33 33 32 33 31 30 23 18 12 8 9 8 8 8 9 9 8 7 9 9 9 11 10 11 11 11 10 10 11 10 9 10 11 13 12 17 18 15 13 13
30 31 32 33 33 31 32 32 32 31 26 20 14 11 9 10 10 9 10 10 10 10 10 10 12 13 13 12 12 12 11 12 12 10 10 12 13 16 18 16 15 14 13
32 35 30 32 33 32 32 31 31 31 30 25 24 10 10 9 11 11 11 12 12 13 12 11 13 14 14 14 13 13 12 14 15 12 9 14 15 18 16 16 14 14 14
30 34 34 33 35 32 31 32 30 29 29 28 28 16 9 8 9 12 13 14 15 15 14 14 15 15 15 15 15 15 16 17 18 16 12 14 14 13 15 14 13 14 15
33 39 38 37 37 35 33 34 31 29 28 28 27 27 13 7 8 10 11 14 16 17 17 16 17 18 18 17 17 17 17 19 19 19 16 16 17 15 15 16 15 15 15
37 41 41 40 38 36 31 34 32 29 28 28 28 27 16 10 8 9 12 13 16 18 18 19 19 20 19 19 19 20 19 21 22 20 16 17 20 17 17 18 17 17 16
37 40 40 41 41 39 36 34 32 30 30 29 27 27 22 16 11 10 10 13 15 17 19 21 22 22 22 20 20 21 20 21 23 21 14 20 21 19 20 19 20 19 18
36 38 38 40 42 39 36 37 35 32 31 30 28 28 23 21 19 16 15 13 14 17 19 22 23 24 24 22 22 22 20 23 24 23 17 18 20 21 23 22 22 21 20
37 39 41 40 42 42 40 38 38 35 34 31 30 29 27 26 24 21 18 16 14 15 19 21 24 26 26 26 25 24 23 22 24 25 20 18 22 22 24 24 24 24 24
28 37 41 40 41 41 40 37 39 36 36 35 32 30 30 29 28 26 24 22 20 16 14 15 23 28 30 29 28 27 27 24 25 26 24 21 22 23 24 27 27 27 26
27 31 38 37 40 39 37 38 36 36 33 34 33 30 31 34 32 30 28 26 23 21 20 16 14 28 33 33 32 32 30 28 27 27 27 24 23 21 26 30 28 27 30
25 29 34 34 38 38 36 36 35 36 33 32 32 30 28 34 32 30 31 28 26 23 22 23 21 18 35 37 35 36 34 31 29 28 29 24 25 23 22 33 30 28 27
27 28 33 32 34 36 36 35 32 34 33 31 32 31 27 33 30 32 32 30 27 26 26 25 24 24 29 38 39 39 37 34 31 31 31 24 29 25 20 32 33 30 28
27 27 30 27 32 34 35 33 32 32 32 31 31 31 28 32 31 32 31 28 27 29 27 25 23 22 28 34 36 37 41 36 33 30 32 27 32 28 24 28 31 32 32
28 28 30 29 31 35 34 32 33 32 31 29 31 29 27 33 30 31 30 27 29 29 26 24 26 26 25 34 28 30 34 37 36 35 32 30 35 31 26 22 36 36 34
26 26 30 28 28 33 32 29 32 32 30 31 29 25 31 30 31 31 28 29 28 26 27 25 27 25 31 14 29 33 33 34 35 36 34 32 38 35 28 26 32 36 35
24 22 24 25 28 30 30 29 29 28 29 29 28 22 31 27 30 29 26 30 28 25 26 27 27 27 29 23 25 30 32 29 33 35 37 33 39 36 30 28 31 36 36
24 24 26 26 27 27 29 31 32 29 29 30 27 27 29 25 28 29 25 28 26 24 25 23 22 26 28 19 21 20 23 28 24 32 37 37 42 39 34 31 31 38 37
26 25 26 27 27 26 26 26 28 30 26 24 25 29 25 29 25 25 26 27 25 23 25 23 23 22 17 15 9 13 4 13 20 25 28 37 44 39 36 33 33 37 41
26 26 26 27 28 27 25 26 27 28 26 24 25 28 27 27 25 23 25 23 24 24 23 19 21 20 19 26 19 10 3 5 7 20 28 31 41 42 41 34 33 36 43
25 24 25 26 27 27 27 26 26 26 26 29 27 25 31 26 23 25 23 22 22 24 21 17 20 20 19 21 26 8 20 12 8 5 18 26 32 42 41 38 35 36 43
24 25 25 26 26 27 28 26 27 28 29 32 31 27 27 26 23 25 23 23 23 23 19 24 23 21 19 19 17 20 22 23 16 3 10 13 23 30 41 39 35 36 44
24 23 26 26 28 29 29 29 28 29 30 30 32 33 24 23 25 24 25 23 24 21 23 23 23 20 21 21 19 18 16 8 7 5 6 14 17 24 34 40 38 36 40
Wind_Direction
346 352 351 2 16 24 28 13 348 341 337 102 126 166 157 148 148 147 147 150 151 164 158 163 168 160 154 153 154 148 148 153 152 147 141 139 141 136 132 125 119 114 112
344 352 353 5 13 19 27 28 15 350 323 307 264 202 188 176 171 167 170 165 167 178 161 163 171 164 167 165 164 161 160 158 154 146 144 146 150 148 143 137 127 119 115
354 3 5 8 13 16 19 24 22 23 354 322 303 275 237 204 194 191 195 201 194 197 173 174 178 171 175 176 169 165 165 157 156 156 156 160 165 163 151 146 129 118 116
1 9 13 9 14 19 17 19 20 26 17 5 336 301 270 242 217 211 212 217 208 201 199 192 191 192 194 189 183 179 178 161 160 167 168 170 170 179 158 147 130 127 123
7 11 15 11 13 17 18 19 17 19 23 19 10 350 312 279 261 244 232 222 218 211 214 214 208 207 205 207 196 189 185 171 171 164 159 167 164 153 151 143 142 137 132
12 15 15 13 15 16 17 18 15 17 17 17 16 3 347 310 287 272 258 246 232 225 223 218 217 216 212 204 202 197 193 182 181 170 160 160 162 152 148 152 154 144 140
13 14 18 15 15 15 16 15 16 15 15 15 14 5 345 330 321 296 276 263 250 237 232 224 221 221 219 215 216 208 197 190 191 191 186 190 178 179 160 156 154 151 150
17 17 19 18 15 14 13 12 14 12 12 10 11 9 357 331 316 297 287 272 263 254 243 235 229 227 225 227 226 219 207 197 198 201 205 212 195 184 167 163 160 158 158
20 18 18 17 15 17 11 10 9 9 10 9 9 8 360 339 321 305 291 281 272 259 254 245 239 232 229 230 231 223 217 202 203 206 210 211 194 186 179 170 169 165 161
21 19 17 16 15 14 13 9 8 7 6 8 9 5 6 3 341 320 303 288 275 269 259 256 245 239 235 232 229 225 218 209 208 205 214 200 204 201 185 177 169 168 164
19 18 17 14 15 14 13 10 10 10 9 10 7 4 359 356 351 341 326 308 278 268 263 259 253 247 242 236 230 224 219 215 212 209 207 198 206 207 195 182 175 174 170
14 13 15 12 12 12 12 10 10 8 7 7 7 3 357 350 348 345 337 329 298 282 265 261 258 250 243 237 229 225 221 219 218 216 215 211 208 212 197 185 179 176 174
13 12 12 10 10 11 9 6 9 6 2 4 4 2 357 347 347 343 341 340 336 323 309 278 261 252 245 240 231 227 223 223 222 220 219 223 211 220 207 188 186 181 179
14 12 11 9 6 7 8 7 3 5 359 2 2 2 358 351 349 347 341 339 340 335 320 303 300 261 251 241 233 228 225 224 223 221 218 223 220 222 211 190 189 184 179
13 9 9 7 5 4 4 3 1 1 357 356 360 2 358 351 350 346 341 338 337 336 328 316 288 288 253 243 235 231 226 226 225 226 219 228 219 225 218 195 190 186 183
9 6 3 5 2 1 359 359 357 357 354 354 353 358 355 353 351 342 342 342 339 331 328 326 315 290 268 236 234 233 231 229 232 231 227 228 214 225 216 206 189 186 187
6 1 2 358 357 358 357 354 352 351 352 352 349 349 350 352 352 346 344 343 339 333 328 326 318 304 260 217 227 230 230 229 234 234 229 225 213 216 220 215 217 189 189
2 2 357 358 355 355 355 352 347 347 348 346 349 346 342 347 352 349 344 345 338 336 333 332 328 321 308 222 224 230 229 228 233 235 230 222 214 210 217 217 203 189 190
2 356 355 356 353 354 354 350 345 344 344 342 343 346 336 344 344 349 346 337 343 338 337 332 323 324 310 286 229 230 227 231 232 236 226 221 212 210 209 212 213 199 196
356 352 352 355 355 352 351 347 344 342 340 338 339 336 337 339 341 340 342 340 343 340 338 338 329 323 314 276 243 221 223 225 229 229 221 218 210 210 207 212 211 211 195
354 353 351 349 347 346 345 343 341 337 335 335 334 328 336 332 340 336 336 340 343 337 336 338 334 330 322 331 270 224 206 218 219 223 220 216 209 207 208 211 212 210 202
349 350 346 343 340 339 334 330 332 331 328 327 328 331 332 331 332 335 332 334 341 332 336 340 340 337 317 323 304 221 189 208 223 223 213 207 206 205 206 206 211 213 205
346 345 339 339 337 333 329 324 324 326 325 326 329 330 329 333 327 328 329 328 331 330 328 328 335 332 318 315 316 290 177 202 168 207 207 206 202 203 204 204 212 219 214
335 337 338 338 337 334 331 322 317 312 311 317 317 318 327 327 324 324 323 323 323 325 324 324 325 324 318 311 329 304 328 296 190 183 194 203 210 205 210 206 213 219 218
328 331 337 337 332 333 331 329 317 306 308 313 314 312 317 322 320 324 320 319 317 322 314 320 321 319 311 301 309 309 327 316 258 178 184 191 204 211 208 208 214 216 211
331 337 336 332 330 331 331 328 325 318 313 308 310 311 311 309 314 317 321 314 313 313 313 313 313 309 310 304 299 307 291 299 326 323 225 188 191 203 204 207 211 209 207